Temp
5 5 6 7 6 7 7 6 6 7 7 8 8 8 7 7 7 6 6 7 6 5 6 6 5 5 5 5 5 5 4 2 1 0 0 0 -0 -1 -1 -2 -2 -1 0 1
4 5 7 7 6 6 6 6 7 7 8 8 8 8 7 7 7 7 7 6 6 5 5 6 5 5 5 5 5 5 5 4 4 3 2 1 2 2 2 2 0 1 1 2
5 7 7 6 6 6 7 6 7 7 8 8 8 8 8 7 7 7 7 6 5 5 5 5 6 5 5 5 5 5 5 5 4 5 4 4 3 3 3 3 3 1 2 1
4 6 5 5 6 6 6 7 7 7 8 8 8 6 8 8 7 6 7 7 6 6 6 5 5 6 6 5 5 5 5 5 5 5 5 5 4 4 4 3 3 2 2 2
4 6 6 6 6 6 6 7 7 8 8 8 8 7 8 8 8 7 7 7 7 7 6 6 6 6 5 5 5 5 5 4 5 4 4 4 4 3 3 3 3 2 2 2
5 5 5 6 6 6 6 7 7 8 8 5 8 7 8 8 8 8 7 7 7 7 8 7 6 5 6 5 5 5 5 4 4 4 4 4 4 4 3 3 3 2 2 2
4 4 5 5 5 6 7 7 6 5 4 3 7 7 8 8 8 8 8 8 8 8 7 7 7 6 6 6 5 5 5 5 5 4 5 4 4 4 4 4 3 3 3 3
3 3 5 6 5 6 7 7 6 4 1 5 7 6 8 8 8 8 7 8 8 8 8 8 8 7 7 6 6 6 6 6 5 5 5 5 5 4 4 4 4 3 3 2
4 3 5 6 6 6 7 7 7 7 5 4 7 7 8 8 8 8 8 8 8 8 8 8 8 7 7 6 6 6 6 6 6 6 6 5 5 5 5 4 4 3 2 0
3 4 5 6 6 6 6 7 7 6 3 3 4 6 7 8 8 8 8 8 8 8 8 8 7 7 7 7 6 6 6 6 6 6 5 5 5 5 5 4 4 3 2 0
3 3 4 5 6 6 6 7 7 7 7 2 2 5 7 8 8 8 8 8 8 8 8 8 8 7 7 6 6 6 6 6 5 5 6 5 4 4 4 3 2 1 1 2
3 4 3 4 5 6 6 7 7 7 5 6 7 6 7 7 8 8 7 8 8 8 8 8 8 7 7 6 6 6 5 6 6 5 5 3 3 3 3 2 1 1 2 1
1 3 3 4 5 6 5 6 7 7 7 6 4 5 7 7 8 8 7 7 6 8 8 8 7 7 7 7 6 6 6 6 6 5 5 3 2 3 3 2 2 2 2 0
0 -0 2 2 4 5 5 6 6 7 7 6 6 7 7 7 7 8 7 7 7 7 7 7 7 7 7 6 6 6 6 6 6 5 5 4 4 4 3 3 3 2 3 2
1 -1 -0 1 3 4 5 6 6 7 7 7 7 7 7 7 7 7 7 7 7 7 7 7 7 7 7 7 7 7 6 6 6 5 5 4 4 4 4 4 3 3 3 3
0 -1 -2 0 2 3 4 5 6 6 6 7 7 7 7 7 7 7 7 7 7 7 7 7 7 7 6 6 6 6 6 6 6 6 4 4 4 3 3 3 3 3 3 2
-0 -1 -2 -3 0 2 3 5 5 6 6 6 6 7 7 7 7 7 7 7 7 7 7 7 7 7 7 6 6 6 6 5 5 5 4 4 4 3 3 3 3 3 3 2
-1 -2 -3 -3 -2 -1 3 4 5 5 6 6 6 6 7 7 7 7 7 7 7 7 7 7 7 7 6 6 6 6 5 5 5 4 4 4 3 3 3 3 3 2 2 2
-2 -2 -3 -3 -3 -1 3 3 4 4 5 6 6 6 6 7 7 7 7 7 7 7 7 7 6 6 6 6 6 5 5 4 4 4 4 4 4 3 3 2 2 2 2 2
-1 -2 -3 -3 -4 -2 2 3 4 4 4 6 6 6 6 7 7 7 7 7 7 7 7 7 6 6 5 5 5 4 4 4 4 4 4 4 3 3 2 2 2 2 2 1
-3 -3 -3 -3 -3 -2 -1 3 4 3 3 5 5 6 6 6 7 7 7 7 7 7 6 6 5 5 5 5 4 4 4 4 3 4 4 4 3 2 2 2 2 2 1 1
-2 -2 -2 -4 -4 -3 -0 1 3 2 3 4 4 5 5 5 6 6 6 7 6 6 5 6 6 6 5 5 4 4 4 3 3 3 3 2 2 2 2 2 2 1 0 -0
-2 -1 -1 0 1 1 0 -1 -1 -0 3 3 4 5 5 5 5 6 6 5 5 5 5 5 5 5 5 4 3 3 3 3 2 2 2 1 1 2 2 1 1 -0 -1 -1
-2 -1 -1 -1 1 0 1 1 -1 -0 1 3 3 4 5 5 4 5 5 6 5 5 5 5 4 4 4 3 3 3 2 2 1 1 1 1 1 1 1 -0 -1 -1 -2 -2
-1 -1 -1 -0 1 0 1 0 -1 1 1 2 2 2 4 3 3 3 4 4 5 4 4 4 4 4 3 2 2 2 2 1 1 1 1 0 0 -0 -1 -1 -2 -3 -3 -4
-1 -1 -2 -0 0 -0 1 0 1 1 1 2 2 3 2 2 2 2 1 3 3 3 3 3 3 3 2 2 2 2 2 1 0 0 0 -0 -1 -2 -2 -3 -4 -5 -5 -6
Height
3094 3094 3090 3097 3101 3101 3102 3104 3103 3099 3103 3101 3099 3097 3096 3100 3100 3098 3098 3098 3099 3099 3097 3098 3098 3097 3097 3096 3093 3092 3091 3092 3095 3097 3100 3104 3108 3112 3115 3120 3126 3131 3136 3143
3090 3083 3089 3095 3097 3099 3099 3099 3097 3097 3097 3098 3098 3096 3095 3095 3097 3097 3097 3097 3098 3100 3100 3099 3099 3099 3099 3097 3095 3095 3096 3097 3097 3099 3102 3105 3109 3111 3117 3120 3124 3129 3136 3140
3081 3081 3087 3091 3092 3095 3095 3096 3095 3096 3096 3095 3094 3094 3093 3092 3092 3094 3095 3094 3094 3096 3100 3099 3098 3098 3100 3100 3100 3099 3100 3102 3102 3102 3104 3107 3110 3113 3117 3120 3124 3128 3134 3135
3078 3080 3084 3087 3088 3092 3092 3092 3094 3092 3091 3092 3091 3091 3089 3090 3091 3090 3092 3091 3090 3092 3095 3097 3097 3098 3100 3101 3101 3102 3102 3104 3106 3106 3107 3108 3111 3114 3118 3121 3125 3128 3130 3132
3069 3073 3078 3080 3083 3088 3087 3090 3091 3089 3087 3087 3088 3087 3085 3086 3086 3086 3087 3088 3087 3088 3091 3093 3094 3098 3100 3101 3102 3104 3104 3104 3105 3108 3107 3110 3111 3114 3118 3121 3123 3125 3127 3129
3066 3072 3074 3077 3080 3083 3085 3087 3088 3086 3084 3082 3083 3083 3081 3081 3081 3082 3084 3085 3084 3085 3087 3090 3092 3093 3095 3098 3100 3102 3104 3104 3104 3106 3106 3106 3108 3112 3116 3119 3121 3123 3125 3127
3064 3062 3067 3072 3073 3077 3080 3082 3084 3085 3083 3080 3079 3077 3075 3077 3077 3077 3078 3080 3081 3083 3084 3085 3088 3089 3090 3091 3094 3095 3096 3098 3100 3101 3103 3106 3108 3111 3113 3115 3118 3119 3121 3123
3057 3057 3060 3062 3065 3069 3072 3076 3078 3083 3083 3076 3075 3070 3071 3073 3072 3070 3075 3076 3079 3079 3080 3082 3084 3086 3088 3089 3091 3093 3094 3097 3099 3100 3101 3104 3107 3108 3110 3112 3113 3114 3115 3117
3053 3051 3054 3057 3062 3066 3067 3068 3073 3073 3074 3074 3070 3068 3067 3068 3067 3068 3069 3070 3073 3075 3077 3080 3083 3083 3085 3086 3087 3089 3091 3093 3094 3095 3099 3100 3103 3104 3105 3107 3107 3107 3108 3109
3046 3048 3049 3054 3058 3057 3059 3065 3066 3066 3070 3071 3066 3064 3063 3064 3063 3063 3064 3068 3070 3071 3074 3076 3079 3080 3082 3084 3086 3087 3088 3088 3089 3091 3093 3095 3097 3098 3099 3100 3101 3102 3102 3103
3044 3046 3046 3050 3046 3051 3054 3055 3057 3060 3060 3061 3064 3059 3060 3060 3061 3062 3062 3065 3068 3069 3071 3072 3073 3075 3077 3080 3081 3081 3083 3083 3084 3085 3087 3088 3089 3090 3091 3091 3093 3093 3092 3092
3040 3038 3036 3034 3040 3045 3047 3047 3049 3050 3053 3053 3054 3051 3057 3057 3058 3059 3059 3061 3066 3067 3068 3068 3069 3069 3071 3072 3074 3075 3078 3079 3080 3080 3081 3080 3083 3083 3081 3085 3081 3080 3067 3083
3033 3033 3034 3033 3035 3033 3036 3039 3042 3044 3047 3043 3049 3048 3053 3055 3055 3056 3056 3058 3060 3063 3064 3064 3065 3065 3066 3065 3068 3069 3070 3072 3073 3073 3074 3074 3077 3069 3075 3071 3072 3075 3073 3068
3032 3033 3032 3029 3032 3034 3032 3034 3036 3038 3036 3038 3036 3043 3046 3050 3051 3052 3053 3055 3056 3057 3060 3060 3061 3060 3060 3061 3063 3064 3064 3065 3066 3066 3067 3068 3069 3070 3070 3068 3068 3073 3073 3071
3027 3029 3027 3022 3025 3026 3026 3027 3029 3026 3029 3031 3034 3035 3040 3044 3046 3048 3049 3050 3051 3052 3054 3056 3056 3057 3056 3057 3058 3059 3060 3060 3058 3059 3060 3061 3063 3064 3064 3064 3066 3066 3065 3066
3023 3020 3020 3013 3017 3020 3018 3018 3019 3020 3023 3025 3028 3028 3035 3037 3039 3040 3042 3044 3045 3046 3048 3049 3050 3050 3050 3051 3052 3053 3052 3052 3053 3053 3053 3055 3057 3058 3059 3061 3061 3060 3059 3059
3017 3018 3016 3013 3015 3015 3011 2998 3011 3014 3016 3018 3019 3025 3030 3029 3030 3031 3034 3035 3035 3039 3042 3042 3043 3044 3044 3045 3045 3045 3045 3044 3044 3047 3047 3048 3050 3052 3053 3053 3053 3053 3052 3052
3011 3010 3014 3018 3014 3005 2989 3000 3005 3008 3011 3013 3017 3020 3022 3022 3022 3024 3026 3026 3028 3031 3032 3034 3037 3038 3039 3040 3039 3038 3038 3037 3036 3037 3039 3041 3042 3042 3043 3044 3045 3046 3046 3045
3007 3008 3013 3013 3010 3000 2991 2995 2999 3002 3001 3008 3009 3013 3016 3017 3017 3015 3018 3018 3022 3023 3024 3025 3028 3031 3033 3033 3033 3032 3030 3031 3031 3032 3032 3033 3034 3035 3036 3036 3036 3037 3036 3036
3001 3003 3005 3008 3012 3005 2996 2994 2997 2998 2992 3000 3004 3007 3010 3011 3007 3009 3012 3014 3014 3016 3018 3019 3022 3025 3026 3026 3026 3025 3023 3023 3024 3025 3026 3027 3026 3027 3028 3029 3030 3030 3029 3027
2995 2997 2997 2997 3002 2997 2989 2986 2989 2992 2994 2995 2997 2999 3002 3000 3000 3003 3004 3005 3008 3009 3011 3014 3018 3018 3018 3017 3017 3017 3017 3016 3017 3018 3019 3019 3020 3021 3022 3022 3022 3021 3020 3017
2989 2993 2992 2992 2995 2990 2983 2980 2980 2982 2985 2989 2991 2992 2991 2993 2993 2994 2997 2998 3000 3003 3005 3007 3009 3008 3008 3008 3009 3009 3009 3010 3010 3011 3012 3012 3013 3014 3014 3014 3013 3012 3010 3008
2985 2984 2986 2985 2983 2980 2979 2976 2976 2978 2981 2983 2984 2984 2984 2986 2989 2991 2992 2995 2996 2997 2999 3000 3001 3001 3001 3001 3001 3001 3001 3001 3003 3004 3005 3006 3006 3006 3006 3006 3005 3003 3001 2999
2976 2978 2977 2979 2979 2977 2971 2973 2974 2976 2975 2976 2975 2976 2978 2980 2985 2987 2987 2988 2990 2991 2992 2992 2992 2993 2992 2992 2992 2992 2992 2993 2995 2996 2996 2997 2998 2998 2997 2997 2995 2993 2991 2989
2972 2974 2973 2973 2970 2969 2970 2969 2968 2970 2968 2971 2972 2970 2972 2976 2978 2980 2982 2983 2983 2984 2985 2985 2984 2984 2985 2985 2984 2983 2984 2985 2986 2986 2988 2988 2989 2988 2987 2985 2984 2983 2980 2979
2967 2967 2967 2965 2966 2963 2965 2967 2965 2964 2963 2964 2966 2966 2966 2968 2971 2972 2972 2978 2977 2978 2978 2977 2976 2976 2976 2976 2976 2976 2976 2977 2978 2978 2978 2978 2977 2977 2976 2975 2973 2972 2970 2968
Wind_Speed
25 27 31 19 18 18 18 22 27 22 23 14 16 15 18 14 13 12 9 2 2 1 4 5 5 5 4 8 11 10 11 16 22 26 30 31 26 28 32 36 40 42 35 35
23 35 27 16 15 19 18 22 26 28 8 6 15 14 16 16 13 13 9 8 4 3 6 7 8 7 4 4 9 10 14 15 18 24 27 26 26 28 31 32 37 35 35 29
31 27 21 19 17 20 20 23 24 26 16 12 15 12 13 18 17 16 13 11 15 9 5 10 9 8 7 8 8 11 12 13 17 22 27 29 29 30 29 29 28 31 29 25
27 25 25 16 19 18 22 14 21 20 16 13 14 12 16 11 19 21 18 16 12 10 7 11 14 12 10 11 12 12 14 16 17 18 20 22 23 21 20 21 24 24 23 21
30 24 25 27 24 17 26 16 23 19 12 13 14 9 13 9 15 23 21 17 14 9 9 7 11 14 13 15 13 13 14 17 17 18 17 17 19 22 22 23 22 22 23 23
31 26 22 23 23 23 18 21 18 19 17 7 19 12 15 14 15 21 24 22 15 13 9 7 8 13 16 18 18 18 18 18 18 19 18 17 17 20 24 24 22 22 23 25
32 36 31 27 25 24 21 23 6 6 3 6 14 14 18 13 16 20 26 19 23 16 16 14 15 19 20 21 20 18 17 16 16 16 16 16 16 19 21 20 20 23 25 24
30 15 35 31 33 28 25 26 15 6 3 6 13 7 14 15 16 14 18 28 23 17 12 13 17 18 19 21 22 21 21 18 18 18 18 19 20 22 23 23 24 26 25 25
11 20 23 35 29 24 26 33 27 23 8 3 10 16 26 23 20 16 23 25 28 19 17 16 17 14 17 20 22 23 23 22 23 23 22 23 23 24 26 26 28 28 28 27
36 21 13 20 27 33 33 25 20 15 6 4 5 11 17 20 13 16 21 19 22 21 20 21 22 22 19 17 15 20 21 21 21 24 29 29 28 29 30 32 32 32 34 31
35 39 33 30 32 34 26 35 29 22 19 6 2 7 11 13 13 17 21 18 24 24 21 21 23 24 24 25 25 23 24 30 33 32 27 24 30 29 32 36 36 38 39 42
24 29 36 49 36 19 30 36 37 27 7 13 22 22 14 6 7 11 16 26 21 19 21 20 18 22 26 32 32 31 33 33 33 33 34 31 25 30 36 38 42 21 46 40
8 15 23 26 34 43 38 30 32 38 30 31 14 13 17 13 14 20 19 18 17 21 21 21 17 20 24 22 28 33 32 30 26 32 35 40 27 28 31 19 17 25 19 39
23 19 20 22 21 18 27 30 27 38 34 28 35 32 27 22 23 21 23 20 19 20 20 21 20 21 20 19 20 23 25 22 24 28 28 28 28 18 16 17 19 23 17 17
23 22 21 30 34 30 40 24 30 40 40 30 30 29 28 26 24 26 25 23 19 20 23 28 27 25 25 22 21 21 23 24 22 24 24 23 23 21 17 16 19 18 18 19
22 20 25 34 25 36 39 44 34 37 36 37 33 31 28 30 29 32 32 30 28 29 29 28 31 29 31 29 26 27 23 24 25 23 23 26 25 23 20 21 20 20 22 24
18 21 18 17 20 26 27 54 43 35 35 37 35 35 30 29 30 27 29 27 35 29 27 30 33 31 31 32 28 24 25 25 26 25 24 25 27 27 25 23 24 25 25 28
18 14 13 30 39 9 40 32 42 43 41 33 27 32 25 27 32 27 29 30 28 28 33 29 30 31 31 29 29 32 30 27 27 26 28 27 27 28 28 29 28 28 25 27
20 19 13 11 21 29 30 27 26 25 40 43 37 30 29 27 24 23 19 22 23 23 25 26 31 30 29 28 28 33 28 27 27 28 29 30 30 30 31 28 24 25 27 28
17 18 19 14 8 7 14 30 30 18 28 26 51 42 28 29 33 31 30 24 25 25 26 23 30 32 27 29 29 27 26 27 28 28 29 28 27 28 27 25 26 28 30 30
14 19 26 21 14 21 27 13 16 29 27 11 13 24 31 31 31 29 31 29 24 21 21 24 27 25 25 26 26 26 28 29 31 31 30 28 27 26 26 28 29 31 32 31
13 10 14 12 10 15 22 5 7 17 19 24 24 17 14 15 24 26 24 22 21 20 18 18 21 23 26 26 25 29 31 30 29 29 29 28 27 28 29 30 31 32 31 32
23 25 16 20 22 23 21 25 11 8 26 19 20 24 29 22 23 19 17 17 18 15 15 18 21 23 26 26 27 29 29 27 26 28 29 29 30 30 31 32 32 31 32 33
28 27 32 26 24 14 20 27 18 15 15 18 22 19 28 22 13 20 22 25 23 21 22 22 22 24 26 26 27 29 28 27 28 30 32 33 33 33 33 33 33 34 35 36
17 22 28 31 27 25 18 24 26 15 18 24 17 14 25 18 18 18 21 21 21 20 20 22 23 25 27 27 27 28 29 29 32 34 35 35 36 36 37 37 37 37 37 37
32 29 26 27 18 23 18 14 18 19 23 30 34 18 23 21 25 21 15 24 22 20 22 23 24 26 27 28 28 29 30 32 35 37 39 40 41 40 40 40 40 40 39 39
Wind_Direction
218 225 231 236 233 244 261 275 286 303 294 264 289 298 272 267 277 257 269 307 98 326 246 156 145 132 93 111 104 120 159 173 186 195 174 183 186 188 197 202 199 194 199 198
216 237 237 235 229 237 250 273 287 305 303 258 268 282 263 245 259 274 266 279 293 282 240 193 180 168 179 147 130 127 129 130 142 154 163 172 169 167 172 169 178 182 194 201
219 236 239 232 220 225 238 262 281 284 286 260 258 275 280 248 248 246 245 260 267 276 268 212 195 187 179 153 140 140 144 145 142 142 150 155 159 163 169 172 178 186 203 206
232 240 239 233 232 225 259 260 274 283 279 250 257 253 265 281 236 237 237 257 252 253 251 214 208 202 185 175 163 158 158 163 164 162 166 166 168 172 177 183 190 194 200 208
226 237 230 230 227 244 254 260 268 281 263 267 264 277 285 287 250 239 234 240 249 237 246 250 229 208 198 201 188 183 180 178 179 184 186 187 187 191 195 200 201 204 210 218
238 238 230 239 233 255 263 264 267 260 264 260 260 270 277 282 274 258 240 231 240 243 236 244 238 229 215 214 211 205 200 195 195 198 201 206 208 210 211 210 212 218 223 226
236 239 235 231 244 241 245 252 244 264 235 228 270 263 277 272 278 263 239 237 234 235 237 248 232 225 220 225 226 227 225 222 221 221 221 218 217 224 226 227 225 228 232 237
223 245 232 215 229 235 242 245 219 211 198 251 251 250 258 273 297 270 230 247 233 230 244 254 237 235 232 231 230 233 237 233 236 239 238 236 233 231 231 232 235 234 236 246
226 236 238 229 217 223 240 240 247 249 245 213 239 258 275 291 266 264 245 239 221 233 236 241 220 219 236 241 240 238 241 244 247 249 249 250 250 251 247 245 244 252 252 247
235 258 245 228 229 234 241 245 233 228 186 235 230 240 256 281 266 241 227 220 215 229 243 248 236 236 232 239 249 242 244 247 257 259 253 252 252 256 259 258 253 251 249 241
230 238 248 256 238 238 235 236 233 235 232 187 208 245 278 260 250 245 213 237 232 234 236 250 250 247 251 249 254 258 255 253 257 261 262 296 263 263 258 257 255 256 253 246
234 245 236 248 239 238 238 242 237 225 201 233 238 247 257 247 273 225 224 225 237 235 236 240 258 251 256 253 251 255 260 269 264 264 266 264 265 276 262 259 260 298 247 257
294 234 243 251 253 241 245 239 239 234 238 228 212 239 266 237 238 230 227 224 247 234 247 255 266 269 264 254 250 259 266 270 273 265 268 267 271 277 258 278 275 291 276 251
279 275 262 253 260 249 249 245 243 229 229 230 233 247 250 251 237 214 220 219 234 234 258 265 267 263 260 255 257 261 270 272 264 263 267 261 265 279 262 269 269 266 261 246
284 280 286 264 252 261 246 251 241 233 233 232 241 246 245 249 230 227 238 232 227 236 249 265 258 254 257 261 259 267 278 273 273 269 268 262 260 263 260 263 259 263 258 259
289 258 299 302 264 248 257 248 247 240 236 242 248 257 262 267 262 242 238 240 237 244 260 259 249 249 258 256 257 287 286 270 264 271 262 253 254 254 254 253 257 265 266 265
279 279 289 296 312 267 263 243 239 245 244 246 251 254 261 257 256 254 245 256 244 243 247 253 251 252 254 257 268 292 300 280 266 263 261 259 255 250 253 258 266 266 268 274
282 295 259 283 315 251 242 250 243 243 243 241 252 253 254 268 264 252 257 252 258 230 264 247 240 244 247 265 273 281 294 273 276 272 263 263 256 257 261 262 261 265 263 267
266 271 262 255 281 282 247 234 223 235 245 243 248 249 258 265 251 240 250 245 245 255 251 252 246 245 256 264 274 279 283 271 270 271 268 266 262 259 260 264 263 267 271 278
251 253 245 238 258 292 318 256 233 234 274 247 247 253 259 253 251 250 253 261 245 258 246 249 237 245 255 272 276 276 272 266 263 262 263 262 259 258 257 259 266 275 282 284
213 228 225 241 235 262 271 241 231 226 248 238 245 233 241 250 256 259 253 259 256 244 235 228 240 261 272 274 269 267 272 265 260 258 259 260 257 255 260 268 275 282 286 286
251 247 250 205 208 255 271 256 194 217 235 243 248 235 231 266 257 256 251 253 223 219 228 247 264 275 280 273 266 268 271 266 258 255 254 251 252 257 264 271 278 283 283 282
237 230 261 256 261 285 283 288 285 312 232 242 238 238 238 250 270 264 231 219 239 257 272 273 276 278 272 264 265 271 270 260 253 250 248 249 252 258 265 272 278 279 278 278
228 256 261 260 269 266 295 319 259 315 269 241 249 249 244 237 248 254 261 254 253 270 277 278 277 279 268 263 268 270 263 253 246 245 247 251 256 262 267 271 273 273 274 275
268 247 244 247 262 286 296 290 262 274 277 253 254 245 235 237 238 245 252 253 261 269 270 274 279 277 269 267 267 265 258 250 247 248 252 257 260 262 264 267 268 268 268 269
235 249 245 261 293 287 290 308 272 267 289 257 252 249 256 242 243 242 243 264 267 269 275 279 282 280 275 272 269 265 259 253 252 253 256 258 261 262 262 262 263 265 266 266